Home   Weather   Knox   Past weeks
Flag for USA

Past Weather in Knox, Indiana, USA — Yesterday and Last 2 Weeks

Now
72 °F

Sunny.


Feels Like: 76 °F
Forecast: 79 / 60 °F
Wind: 8 mph from North

Location: Porter County Municipal Airport

Current Time: Jun 19, 2019 at 4:13:19 pm

Latest Report: Jun 19, 2019 at 2:56 pm


Visibility: 10 mi

Pressure: 29.70 "Hg

Humidity: 57%

Dew Point: 56 °F

Location of KnoxLocation

Past Weather in Knox — Graph

°F

Knox Temperature Yesterday

Maximum temperature yesterday: 79 °F (at 2:35 pm)
Minimum temperature yesterday: 58 °F (at 12:18 am)
Average temperature yesterday: 68 °F

High & Low Weather Summary for the Past Weeks

 TemperatureHumidityPressure
High85 °F (Jun 7, 2:56 pm)94% (Jun 10, 12:32 am)30.22 "Hg (Jun 10, 12:32 am)
Low49 °F (Jun 14, 4:56 am)21% (Jun 11, 2:56 pm)29.67 "Hg (Jun 5, 7:56 am)
Average67 °F70%29.91 "Hg
* Reported Jun 4 2:56 pm — Jun 19 2:56 pm, Knox. Weather by CustomWeather, © 2019

Note: Actual official high and low records may vary slightly from our data, if they occured in-between our weather recording intervals... More about our weather records

Advertising

Knox Weather History for the Previous 24 Hours

Scroll right to see more
 ConditionsComfort  
Time TempWeatherWind HumidityBarometerVisibility
2:56 pm
Wed, Jun 19
72 °FSunny.8 mph57%29.70 "Hg10 mi
1:56 pm74 °FSunny.9 mph60%29.71 "Hg10 mi
12:56 pm79 °FPassing clouds.12 mph56%29.73 "Hg10 mi
11:56 am80 °FPartly sunny.6 mph58%29.75 "Hg10 mi
9:56 am76 °FSunny.7 mph62%29.77 "Hg10 mi
8:56 am74 °FSunny.3 mph67%29.78 "Hg10 mi
7:56 am71 °FSunny.5 mph71%29.78 "Hg10 mi
6:56 am67 °FSunny.No wind85%29.79 "Hg8 mi
5:56 am62 °FFog.No wind86%29.80 "Hg6 mi
4:56 am61 °FFog.No wind87%29.79 "Hg6 mi
3:56 am61 °FFog.No wind87%29.80 "Hg5 mi
2:56 am61 °FClear.No wind87%29.80 "Hg10 mi
1:56 am61 °FClear.No wind90%29.83 "Hg8 mi
12:56 am62 °FClear.No wind86%29.85 "Hg10 mi
11:56 pm
Tue, Jun 18
62 °FClear.No wind86%29.85 "Hg9 mi
10:56 pm64 °FClear.3 mph84%29.86 "Hg10 mi
9:56 pm66 °FClear.3 mph78%29.87 "Hg10 mi
8:56 pm68 °FClear.3 mph76%29.85 "Hg10 mi
7:56 pm71 °FClear.6 mph71%29.85 "Hg10 mi
6:56 pm74 °FSunny.6 mph67%29.86 "Hg10 mi
5:56 pm76 °FSunny.7 mph62%29.86 "Hg10 mi
4:56 pm79 °FSunny.7 mph58%29.87 "Hg10 mi
Weather by CustomWeather, © 2019

See weather overview